Location: Newark
(45.8667°N, 9.7333°E)
Time: 20:31:56
(UTC+00:00)

Vanguard 3 - Pass Details

Date: 25 January 2020
Orbit: 508 x 3263 km, 33.3° (Epoch: 25 February)

Event Time Altitude Azimuth Distance (km) Brightness Sun altitude
Enters shadow 23:55:26 - 273° (W) 6,096 11.6 -62.9°
Rises 23:55:34 0° 273° (W) 6,066 - -62.9°
Reaches altitude 10° 00:04:25 10° 243° (WSW) 4,185 - -62.5°
Maximum altitude 00:06:36 11° 232° (SW) 3,880 - -62.4°
Drops below altitude 10° 00:08:37 10° 220° (SW) 3,711 - -62.3°
Sets 00:14:27 0° 184° (S) 3,985 - -61.9°
